Vertical_Velocity
3 0 -2 3 9 13 13 5 5 8 10 5 3 3 1 1 2 2 -1 -1 1 1 -1 -3 -4 -4 -3 -1 -1 -0 0 1 2 2 1 0 -1 -2 -2 -3 -3 -3 -3 -2 -2 -2 -2 -2 -2 -1 -1 -1 -1 -1 -0 -0 -0 -0 -0 -0 -1 -1 -1 -1 -2 -2 -2 -2 -3 -3 -3 -3 -3 -3 -3 -2 -2 -2 -2 -2 -1 -0 0 0 0 -0
2 -2 -0 5 10 13 10 0 2 8 11 4 1 0 -1 1 1 -0 -3 0 2 2 -1 -2 -3 -2 -0 0 -0 -0 1 2 2 1 0 -1 -2 -3 -3 -3 -3 -3 -3 -2 -2 -2 -1 -1 -1 -1 -1 -1 -1 -1 -0 -0 -0 -1 -1 -1 -1 -1 -1 -1 -2 -2 -2 -3 -3 -3 -3 -3 -3 -3 -2 -2 -2 -2 -2 -2 -1 -0 0 -0 -0 -1
-2 -1 5 4 6 9 9 0 2 6 8 3 -0 -2 -1 2 1 -1 -2 1 1 1 -0 -1 -1 -0 1 0 -0 0 2 2 1 0 -0 -1 -2 -3 -3 -3 -3 -3 -3 -2 -2 -1 -1 -1 -1 -1 -1 -1 -1 -1 -1 -1 -1 -1 -1 -1 -0 -1 -1 -1 -1 -2 -2 -3 -3 -3 -3 -3 -3 -3 -2 -2 -2 -2 -2 -2 -1 -1 -0 -1 -1 -1
-2 3 5 -2 1 7 9 2 1 3 4 2 -1 -2 -0 2 2 -1 -3 -1 0 1 1 -0 0 1 2 0 -0 1 2 1 -0 -1 -1 -2 -2 -3 -3 -3 -3 -2 -2 -2 -1 -1 -1 -1 -1 -1 -1 -1 -1 -1 -1 -1 -1 -1 -0 -0 -0 -0 -0 -1 -1 -2 -2 -3 -3 -3 -3 -3 -3 -2 -2 -2 -2 -3 -3 -2 -1 -1 -1 -1 -1 -1
1 3 -1 -7 -0 8 6 -1 -1 2 2 0 -1 -1 0 2 0 -3 -5 -1 2 2 0 -1 -0 2 2 0 0 1 1 0 -1 -1 -2 -2 -2 -2 -2 -2 -2 -2 -2 -1 -1 -1 -1 -0 -0 -0 -1 -1 -1 -1 -1 -1 -0 -0 -0 -0 -0 -0 -0 -1 -1 -2 -2 -2 -3 -3 -3 -3 -2 -2 -1 -2 -2 -2 -3 -2 -1 -1 -1 -1 -1 -1
-0 -2 -7 -6 1 5 -2 -4 -1 2 1 -0 -1 -2 -1 -0 -2 -4 -2 2 3 2 -1 -2 -0 1 1 1 0 0 -0 -1 -1 -2 -2 -2 -2 -2 -2 -2 -2 -2 -1 -1 -1 -1 -1 -0 -0 -0 -0 -1 -1 -1 -1 -1 -0 -0 -0 -0 -0 -0 -1 -1 -1 -2 -2 -2 -2 -2 -2 -2 -2 -2 -1 -1 -2 -2 -2 -2 -1 -1 -1 -1 -1 -1
-1 -2 -6 -1 2 1 -7 -4 -1 0 0 0 -2 -4 -2 -2 -3 -2 1 1 -0 -1 -2 -1 -0 1 1 1 0 -1 -1 -1 -2 -3 -2 -2 -2 -2 -2 -2 -2 -2 -1 -1 -1 -1 -0 -0 -0 -0 -0 -0 -1 -1 -1 -1 -1 -0 -0 -0 -1 -1 -1 -1 -2 -2 -2 -2 -2 -2 -2 -2 -2 -1 -0 -1 -1 -2 -2 -1 -1 -0 -1 -1 -1 -1
2 3 1 4 2 -1 -2 1 -0 -2 -2 -1 -2 -3 -2 -2 -2 -1 -1 -3 -2 -1 -1 -0 0 1 2 0 -1 -2 -2 -2 -3 -3 -3 -2 -2 -1 -1 -1 -1 -1 -1 -1 -1 -0 -0 -0 -0 -0 -0 -0 -0 -1 -1 -1 -1 -1 -1 -1 -1 -1 -1 -1 -2 -2 -3 -3 -3 -3 -2 -2 -2 -1 -0 -0 -0 -1 -1 -1 -1 -1 -1 -1 -1 -1
5 6 4 2 -1 -2 2 5 2 -2 -3 -1 -0 -0 -2 -3 -3 -4 -5 -2 1 1 -1 -0 1 2 1 -3 -4 -3 -2 -3 -3 -3 -4 -2 -1 -0 -1 -1 -1 -1 -1 -0 -0 0 0 0 0 0 0 0 0 -0 -1 -1 -1 -1 -1 -1 -1 -1 -1 -1 -2 -2 -2 -2 -3 -3 -3 -2 -2 -1 -0 0 -0 -0 -1 -1 -1 -1 -1 -1 -2 -2
6 6 4 -1 -4 -4 0 5 3 -0 -0 3 3 0 -4 -3 -4 -5 -4 1 1 -2 -4 2 4 2 -3 -6 -5 -2 -2 -3 -4 -4 -3 -1 -0 -0 -0 -0 -0 -0 -0 0 1 1 1 1 1 1 1 1 1 0 -0 -1 -1 -1 -1 -1 -1 -1 -1 -1 -2 -2 -2 -2 -2 -3 -3 -2 -1 -1 -0 0 0 0 -0 -1 -1 -1 -2 -2 -2 -2
6 5 2 -1 -3 -3 1 3 -0 -3 -0 8 8 3 -2 -1 -2 -3 -1 1 -2 -5 -1 5 4 -1 -6 -6 -4 -2 -2 -2 -2 -2 -3 -1 -0 -0 0 1 0 -0 -1 0 1 2 2 2 2 2 2 2 1 1 -0 -1 -1 -1 -1 -1 -1 -1 -1 -1 -2 -2 -2 -2 -3 -3 -2 -2 -1 -0 0 0 0 0 -0 -0 -1 -1 -2 -2 -2 -2
5 3 2 2 0 -0 3 2 -2 -5 1 12 14 10 5 1 -2 -2 4 3 -1 -2 3 3 -1 -6 -7 -5 -5 -5 -4 1 1 -1 -4 -1 0 1 2 1 1 -0 -0 0 1 2 2 2 2 2 2 2 1 1 -0 -1 -1 -1 -1 -1 -1 -1 -1 -1 -2 -2 -2 -2 -2 -2 -2 -1 -1 -0 0 0 -0 -0 -1 -1 -1 -1 -2 -2 -2 -2
4 2 4 6 6 5 3 -1 -4 -3 3 10 11 9 5 -4 -5 -0 11 10 8 6 5 0 -3 -6 -8 -7 -7 -6 -4 1 -0 -3 -5 -0 2 2 1 2 1 0 -1 -1 1 2 2 1 2 2 2 1 1 0 -0 -1 -1 -1 -1 -1 -1 -1 -1 -2 -2 -2 -2 -2 -2 -2 -2 -1 -1 -1 -0 -0 -1 -1 -1 -2 -2 -2 -2 -2 -2 -2
3 3 6 11 12 9 3 -1 -2 -1 1 -0 -1 -3 -6 -9 -4 6 16 16 14 11 6 6 3 -2 -10 -8 -6 -4 -4 -2 -4 -6 -3 1 1 -1 -2 3 4 1 -4 -1 2 3 -1 -0 2 4 1 -0 0 0 -1 -1 -1 -1 -1 -1 -1 -1 -2 -2 -2 -2 -2 -2 -2 -2 -2 -2 -2 -1 -1 -1 -1 -2 -2 -2 -2 -2 -2 -2 -2 -2
1 1 6 10 10 6 3 3 4 3 -1 -8 -10 -9 -7 -2 5 11 13 12 8 5 6 13 10 1 -7 -2 -1 -2 -3 -2 -3 -4 -1 -0 -3 -5 -2 5 5 0 -6 1 4 3 -5 -2 3 4 -1 -1 -0 0 -1 -1 -1 -0 -1 -1 -1 -1 -2 -2 -2 -2 -2 -2 -2 -2 -3 -2 -2 -1 -1 -1 -1 -2 -2 -2 -3 -3 -3 -3 -2 -2
-1 0 6 6 4 1 1 4 6 6 0 -8 -9 -6 0 5 5 4 3 4 -1 -4 1 11 11 6 3 4 3 2 2 2 1 0 0 2 -1 -4 -3 6 7 2 -5 1 4 2 -6 -1 2 3 -2 -2 -1 -1 -2 -1 -0 -0 -1 -0 -1 -1 -1 -2 -1 -1 -1 -1 -2 -2 -3 -2 -2 -1 -1 -1 -2 -2 -2 -3 -3 -3 -3 -3 -3 -2
0 4 8 4 1 -0 -0 2 6 7 1 -4 -3 0 4 3 -2 -5 -1 1 -1 -4 0 0 2 6 10 10 10 9 4 5 4 3 1 8 5 -2 -8 4 8 5 -6 -1 3 3 -4 -0 1 1 -3 -2 -2 -2 -1 -0 -1 -1 -1 -0 -0 -0 -1 -1 -0 -0 -1 -1 -2 -2 -2 -2 -1 -1 -2 -2 -2 -2 -2 -2 -3 -3 -3 -3 -3 -2
4 6 5 2 1 -0 -3 1 5 6 1 -0 1 2 2 -0 -3 -3 2 3 2 1 0 -6 -6 0 8 14 15 10 -3 5 8 7 2 10 6 -4 -12 1 8 7 -4 -0 2 2 -2 -0 -0 -2 -4 -4 -2 -1 -0 -1 -1 -1 -0 -0 0 0 0 0 -0 -0 -1 -1 -2 -2 -1 -1 -1 -2 -2 -2 -2 -2 -2 -2 -2 -2 -2 -2 -2 -2
4 3 1 2 1 -2 -4 1 4 3 0 1 -1 -2 -1 -0 -0 1 5 3 2 0 -2 -7 -7 -3 5 18 15 4 -9 7 13 11 4 6 1 -7 -13 0 8 8 0 2 2 1 -2 -0 -1 -4 -5 -4 -3 -2 -2 -2 -2 -1 -0 -0 0 -0 -0 -0 -0 -0 -0 -1 -1 -0 -0 -1 -1 -2 -2 -2 -2 -2 -2 -2 -2 -2 -2 -2 -2 -2
-0 -1 3 3 0 -1 1 3 1 -1 -2 -3 -5 -4 2 1 -0 0 5 2 0 -1 -3 -3 -2 -2 -1 9 10 5 -2 10 16 15 6 -1 -6 -8 -11 -1 6 8 4 5 2 -1 -2 -0 -1 -4 -6 -4 -4 -3 -4 -3 -2 -1 -0 -0 -0 -0 -1 -1 -0 -0 0 0 1 0 -0 -1 -2 -2 -2 -1 -1 -1 -1 -2 -2 -2 -2 -2 -2 -1
4 1 1 -2 -0 3 6 0 -4 -6 -3 -4 -2 2 7 1 -0 1 4 1 1 1 1 6 5 -0 -9 -1 4 5 1 12 21 22 9 2 4 6 2 2 5 8 8 5 -0 -4 -2 0 -1 -4 -5 -4 -4 -4 -4 -3 -2 -1 -0 -1 -1 -1 -1 -1 -0 0 1 1 1 0 -1 -1 -2 -2 -1 -1 -1 -1 -1 -2 -2 -2 -2 -2 -1 -1
10 6 -4 -4 1 6 2 -6 -8 -6 -2 -0 4 8 5 -1 -1 1 1 -1 0 2 3 5 1 -6 -12 -1 3 1 -5 11 21 22 6 13 24 30 20 16 16 16 13 2 -7 -10 -5 -2 -3 -5 -5 -3 -2 -2 -2 -2 -1 -1 -1 -2 -2 -2 -1 -0 0 1 1 1 0 -0 -1 -2 -2 -2 -2 -1 -1 -1 -2 -2 -2 -2 -2 -2 -1 -0
7 4 -4 -1 3 3 -3 -6 -4 -1 0 3 5 4 -3 -4 -1 2 -1 -2 -1 1 -0 -3 -7 -8 -3 8 8 2 -2 8 12 10 3 17 25 25 15 24 32 33 21 -2 -15 -17 -9 -5 -5 -6 -4 -0 1 1 -1 -1 -1 -1 -2 -3 -2 -2 -1 -0 0 0 -0 -0 -1 -1 -2 -2 -2 -2 -2 -2 -2 -2 -2 -2 -2 -2 -2 -1 -0 0
0 -1 -1 2 2 -0 -3 -1 0 1 1 3 2 -0 -5 -2 1 2 -2 -2 -1 0 -2 -5 -3 2 10 11 8 4 2 4 5 5 8 16 13 4 -4 14 32 40 27 -1 -14 -14 -4 -2 -3 -3 -1 4 4 1 -1 -1 -1 -2 -3 -3 -2 -2 -1 -0 -0 -1 -2 -2 -2 -2 -2 -2 -2 -3 -3 -2 -2 -2 -2 -2 -2 -2 -2 -1 0 1
0 -1 -0 1 0 -0 -0 1 -0 -1 -0 2 2 0 -1 1 3 2 0 2 3 3 -0 0 5 8 7 0 1 4 4 -1 0 5 12 13 6 -3 -9 5 21 31 24 3 -4 -1 8 6 1 -2 1 5 3 -0 -3 -2 -1 -2 -2 -2 -2 -1 -0 -0 -1 -2 -2 -2 -3 -3 -3 -3 -3 -3 -3 -3 -3 -3 -3 -3 -3 -3 -1 -0 1 1
4 2 0 0 1 2 2 0 -2 -3 -2 -1 -0 -0 -0 1 2 3 4 6 5 1 -1 2 4 2 -7 -7 0 6 2 -5 -2 5 11 8 4 -1 -6 -0 12 21 19 5 1 5 12 7 -0 -5 -1 3 1 -2 -4 -1 -0 -0 -1 -1 -1 -1 -0 -1 -2 -3 -3 -3 -3 -3 -3 -3 -3 -4 -4 -3 -3 -3 -3 -4 -3 -2 -1 0 1 0
5 4 2 1 1 2 3 2 1 -1 -2 -3 -4 -4 -4 -3 -0 3 6 2 -3 -5 -2 2 1 -4 -10 -2 6 8 -2 -7 -3 3 5 3 3 2 -3 -4 5 17 19 7 -0 -2 2 1 -3 -5 -1 1 0 -1 -1 1 2 2 0 -0 -1 -1 -1 -3 -3 -4 -4 -4 -4 -4 -4 -4 -4 -4 -4 -3 -3 -3 -4 -4 -3 -2 -1 0 0 0
4 3 2 1 1 1 3 4 5 4 3 0 -2 -4 -6 -3 1 4 2 -8 -10 -5 4 2 -2 -6 -7 1 3 0 -7 -4 -0 1 -4 -0 6 8 -4 -9 2 18 25 12 -0 -8 -5 -1 -2 -4 -2 0 1 2 3 4 4 3 1 -0 -1 -2 -3 -4 -4 -4 -4 -4 -5 -5 -4 -4 -4 -4 -4 -4 -3 -3 -4 -4 -3 -2 -1 0 0 0
3 3 3 2 1 1 2 4 6 7 8 7 5 2 -0 3 7 8 0 -7 -4 3 6 -3 -6 -7 -4 -3 -6 -7 -5 0 -1 -6 -10 2 11 9 -10 -9 5 20 25 16 5 -3 -1 1 -2 -4 -3 -2 0 2 5 5 5 4 2 0 -1 -2 -3 -4 -4 -4 -4 -4 -5 -5 -5 -5 -5 -5 -4 -4 -4 -3 -4 -4 -3 -2 -1 -0 0 -0
3 3 4 4 3 2 2 2 4 5 7 8 9 8 6 8 10 9 4 5 10 11 4 -4 -5 -2 -0 -2 -3 -2 1 -2 -8 -12 -7 9 11 2 -16 -4 10 19 17 14 11 8 5 -2 -6 -6 -3 -2 -0 2 6 7 7 6 3 -0 -2 -3 -4 -4 -4 -4 -4 -4 -5 -5 -5 -5 -5 -5 -4 -4 -3 -3 -3 -4 -3 -2 -1 -0 -0 -0
2 3 4 3 2 2 3 2 2 2 3 5 6 7 7 8 8 8 6 11 12 10 2 1 3 5 6 7 11 12 7 -4 -11 -10 1 11 6 -6 -15 2 10 12 7 10 12 10 2 -7 -9 -6 -1 1 3 6 10 12 11 7 1 -2 -3 -3 -4 -4 -4 -4 -4 -4 -4 -4 -4 -5 -4 -4 -4 -3 -3 -2 -3 -3 -3 -2 -1 -1 -1 -0
1 1 2 1 1 2 2 2 2 2 2 3 3 3 4 4 3 3 3 4 3 1 -0 1 3 5 8 13 17 17 11 4 1 2 8 10 1 -8 -9 5 7 3 -1 5 8 6 -3 -8 -9 -6 -1 2 5 8 12 15 12 6 -2 -4 -4 -3 -4 -4 -3 -3 -3 -4 -4 -4 -4 -4 -4 -4 -3 -3 -2 -2 -2 -3 -3 -2 -2 -1 -1 -1
0 1 -0 -0 0 1 1 1 2 3 3 3 3 3 2 1 1 0 -0 -1 -2 -2 -1 -1 -1 1 4 9 11 12 10 11 11 11 12 10 3 -4 -5 3 3 -1 -4 1 3 2 -2 -5 -7 -6 -2 0 1 2 6 8 6 2 -3 -3 -2 -2 -4 -4 -2 -1 -3 -4 -4 -3 -3 -4 -4 -4 -3 -2 -1 -1 -1 -2 -3 -3 -2 -2 -1 -1
-0 -0 -1 -1 -0 -0 -0 -0 1 2 3 4 4 4 4 3 2 1 -0 -1 -2 -2 -2 -3 -3 -2 -1 2 5 6 6 8 8 8 12 12 7 -1 -5 0 -0 -3 -5 -0 -0 -1 -0 -1 -3 -4 -1 -3 -3 -2 1 1 -1 -2 -3 -1 -0 -2 -4 -3 -2 -1 -3 -3 -2 -2 -4 -4 -4 -3 -2 -1 -0 -0 -1 -2 -3 -3 -3 -2 -2 -1
-1 -1 -1 -0 -1 -1 -1 -1 -0 0 1 2 3 4 4 4 4 3 2 1 0 -1 -1 -2 -2 -2 -2 -0 1 2 2 0 -0 3 10 11 6 -0 -2 0 -2 -5 -3 -1 -2 -3 -0 -3 -4 -3 -2 -5 -6 -4 -2 -1 -2 -2 -2 -1 -1 -2 -5 -4 -2 -2 -3 -2 -1 -2 -4 -5 -4 -2 -1 -0 0 0 -1 -2 -3 -4 -4 -3 -2 -1
-0 -0 -0 -0 0 -0 -0 -1 -1 -1 -0 0 0 1 2 3 4 4 3 3 2 1 0 -0 -1 -1 -1 -0 1 0 -1 -4 -3 2 7 6 2 -0 1 -1 -4 -5 -0 -2 -4 -5 -2 -5 -6 -6 -3 -4 -6 -7 -6 -3 -0 1 1 -1 -3 -4 -5 -4 -2 -1 -1 -1 -2 -3 -5 -4 -3 -2 -1 0 1 0 -1 -2 -3 -4 -4 -3 -2 -1
-0 -0 -0 -0 0 1 0 0 0 0 0 -0 -1 -0 1 1 2 2 3 3 3 3 2 1 1 1 1 1 1 1 -2 -3 -0 3 4 2 1 1 2 -3 -6 -4 1 -3 -6 -6 -3 -4 -6 -7 -5 -4 -6 -8 -8 -4 1 4 2 -3 -4 -4 -4 -3 -1 0 0 -1 -4 -5 -6 -4 -2 -1 -0 1 1 0 -1 -3 -4 -4 -3 -3 -2 -1
-0 -0 -1 -0 0 1 1 1 2 2 1 1 1 1 1 1 1 1 1 2 2 2 2 2 2 2 2 2 2 1 -0 1 2 3 2 1 2 2 2 -2 -3 -2 -0 -3 -5 -5 -3 -2 -2 -4 -5 -7 -8 -7 -5 -2 1 2 -2 -5 -5 -3 -4 -3 -1 1 1 -2 -5 -6 -6 -3 -2 -0 0 1 0 -0 -1 -3 -4 -4 -2 -2 -2 -1
-0 -0 -1 -0 -0 1 1 1 1 1 2 2 2 1 1 1 1 0 0 0 0 0 1 1 1 1 1 2 2 1 1 2 2 1 1 2 2 2 2 0 -0 -1 -2 -2 -2 -1 -1 -1 -1 -2 -4 -5 -5 -5 -4 -1 0 -1 -5 -5 -2 -1 -3 -2 -0 1 -0 -3 -4 -5 -4 -2 -0 1 1 0 -0 -0 -2 -4 -4 -3 -1 -1 -1 -1
-1 -1 -1 -1 -1 -0 0 0 -0 -0 1 1 1 1 2 2 2 1 0 -0 -0 -0 -1 -1 -1 -0 0 1 1 1 1 1 0 -0 1 1 1 1 1 1 0 -1 -1 1 1 1 1 -0 -1 -2 -2 -1 -1 -1 -2 -0 -1 -3 -4 -0 -0 -2 -5 -2 0 0 -2 -3 -4 -4 -4 -2 1 2 1 -0 -1 -1 -3 -4 -4 -3 -2 -1 -0 -1
-1 -0 -0 -1 -1 -0 -0 -1 -1 -0 1 1 1 2 2 1 1 1 -0 -0 -0 -0 -1 -1 -1 -1 -1 0 1 1 1 1 0 0 0 -0 -1 -1 -0 -0 -1 -1 -0 1 1 1 1 1 0 0 2 2 2 1 1 -1 -2 -2 1 2 -2 -6 -7 -1 -0 -1 -3 -3 -3 -3 -2 -0 1 1 -0 -1 -2 -2 -4 -3 -3 -3 -3 -1 -1 -0
-0 -0 -1 -1 -1 -0 -1 -1 -0 0 0 0 1 1 -1 -1 -1 -1 -1 -1 -1 -2 -2 -1 -1 -1 -1 -1 -1 -1 0 1 0 -0 -0 -1 -1 -1 -1 -1 -1 -1 0 1 1 0 0 1 1 2 2 3 4 4 2 -1 -1 0 3 0 -3 -5 -2 -0 -1 -2 -2 -3 -3 -2 1 1 1 -0 -1 -2 -3 -4 -4 -2 -1 -2 -2 -1 -1 -1
-0 -1 -1 -1 -1 -1 -2 -1 -0 0 -0 0 0 -1 -2 -2 -1 -1 -1 -1 -2 -3 -3 -2 -1 -1 -1 -2 -2 -2 -1 -0 -0 -1 -1 -1 -2 -2 -1 -1 -1 -1 0 1 1 -0 -1 1 2 3 1 2 4 4 1 -1 -0 1 2 -1 -1 1 3 -1 -3 -2 0 -2 -3 -1 2 1 -0 -2 -2 -2 -3 -4 -3 -2 -2 -2 -2 -2 -2 -1
-1 -1 -1 -1 -1 -1 -1 0 -0 -1 -1 0 -0 -1 -1 -1 -0 -0 -0 -0 -1 -2 -2 -2 -2 -1 -0 -1 -2 -2 -1 -1 -1 -1 -1 -1 -2 -2 -1 -1 -1 -1 0 1 0 -1 -1 2 2 2 1 3 4 3 -0 -0 -0 -0 -1 -1 1 3 0 -5 -4 -1 1 -2 -2 -0 1 -0 -1 -2 -2 -2 -2 -2 -2 -2 -2 -2 -2 -2 -1 -1
-2 -1 -1 -1 -1 -0 1 1 -0 -1 -0 0 -0 -0 -0 -0 0 0 1 -0 -1 -1 -1 -2 -1 -0 0 -2 -2 -2 -1 -1 -1 -1 -1 -1 -1 -1 -1 -1 -1 -1 -0 -0 -0 -1 1 2 1 0 1 3 3 1 -1 -1 -1 -2 -3 -1 1 1 -4 -5 -2 -0 -1 -2 -2 -1 -1 -1 -1 -1 -1 -1 -1 -2 -1 -2 -1 -1 -1 -1 -1 -0
-1 -1 -0 -1 -0 1 1 -1 -1 -0 1 1 1 1 0 0 0 0 0 -0 -0 -0 -1 -2 -1 -0 -1 -3 -3 -2 -1 -1 -2 -2 -2 -1 -1 -1 -1 -1 -1 -1 -0 -0 -1 -0 1 1 -0 -0 1 2 1 -1 -2 -2 -2 -2 -3 -1 -0 -1 -3 -2 -1 -0 -2 -2 -2 -1 -1 -0 0 0 -1 -2 -2 -2 -1 -1 -1 -1 -1 -1 -1 -1
-0 -0 -0 -0 -0 -0 -1 -1 -1 0 1 1 1 1 1 1 1 1 -0 -1 -1 -1 -1 -1 -1 -1 -2 -3 -2 -1 -1 -2 -2 -2 -2 -1 -1 -1 -0 -1 -1 -0 -0 -0 -0 0 1 -0 -1 -0 1 -0 -2 -3 -4 -2 -1 -1 -3 -2 -1 -1 -2 -3 -2 -2 -1 -0 -1 -1 -1 1 1 -0 -2 -2 -1 -0 -0 -0 -0 -1 -1 -1 -1 -1
-1 -0 -0 -0 -0 -0 -0 -0 0 1 1 1 1 1 1 1 1 0 -0 -1 -1 -1 -1 -1 -1 -1 -2 -2 -2 -1 -1 -1 -2 -1 -1 -1 -1 -1 -1 -0 -0 -0 -0 -0 -0 -0 -1 -1 -1 -1 -1 -2 -4 -5 -5 -2 -1 -1 -2 -2 -1 -2 -4 -4 -3 -1 1 1 -0 -0 0 1 -0 -2 -3 -1 1 1 1 0 -0 -1 -1 -1 -1 -1
-0 -0 -0 -0 0 1 1 0 0 1 1 1 1 1 1 0 -0 -0 -1 -2 -2 -2 -1 -1 -2 -2 -2 -1 -1 -1 -1 -1 -1 -1 -0 -0 -1 -1 -0 -0 -1 -0 -0 -0 -1 -1 -2 -2 -2 -2 -3 -3 -4 -5 -5 -2 -1 -0 -1 -1 -1 -2 -4 -4 -2 -0 1 0 -0 -0 0 -1 -2 -3 -2 0 1 1 1 1 0 -1 -1 -1 -1 -0
0 1 0 1 1 1 1 0 0 1 1 1 1 1 1 -0 -0 -1 -2 -2 -2 -2 -2 -2 -2 -2 -1 -2 -2 -1 -0 -0 -0 -0 0 -0 -0 -0 -0 -1 -1 -1 -0 -0 -1 -1 -1 -2 -3 -3 -3 -3 -3 -4 -4 -2 -1 -0 0 -1 -2 -3 -3 -2 -1 0 1 0 -0 -1 -0 -1 -2 -1 0 1 0 0 1 2 1 -0 -2 -2 -2 -0
1 1 1 1 1 1 0 1 1 1 1 1 1 1 0 -0 -1 -1 -2 -2 -2 -2 -3 -3 -2 -2 -1 -2 -1 -1 -0 -0 -0 0 -0 -1 -1 -0 -0 -1 -1 -1 -0 -1 -1 -1 -1 -2 -2 -3 -2 -2 -2 -2 -2 -2 -1 -0 -0 -2 -3 -2 -1 -1 -0 -0 0 -0 -1 -1 -1 -1 -1 -0 0 -0 -0 1 2 3 2 0 -2 -3 -2 -1
Height
2986 2988 2991 2992 2994 2995 2997 2998 2999 3001 3002 3004 3006 3007 3008 3010 3011 3013 3014 3016 3017 3019 3020 3021 3023 3025 3026 3028 3029 3031 3032 3034 3035 3036 3038 3039 3040 3041 3043 3044 3045 3046 3047 3048 3049 3051 3052 3053 3054 3056 3057 3058 3059 3060 3061 3062 3063 3064 3065 3066 3067 3068 3069 3070 3070 3071 3072 3073 3073 3074 3074 3075 3076 3076 3077 3077 3078 3079 3080 3080 3081 3082 3082 3083 3083 3084
2984 2986 2988 2990 2992 2993 2995 2996 2997 2999 3000 3001 3003 3005 3006 3007 3009 3011 3012 3014 3015 3016 3018 3019 3021 3022 3024 3025 3027 3028 3030 3031 3032 3034 3035 3036 3038 3039 3040 3041 3042 3044 3045 3046 3047 3048 3050 3051 3052 3054 3055 3056 3057 3058 3059 3060 3061 3061 3062 3063 3064 3065 3066 3066 3067 3068 3069 3070 3070 3071 3071 3072 3073 3073 3074 3075 3075 3076 3077 3077 3078 3079 3080 3081 3081 3081
2981 2984 2986 2987 2989 2991 2992 2994 2995 2997 2998 3000 3001 3002 3004 3006 3007 3008 3010 3012 3013 3014 3015 3016 3018 3019 3021 3022 3024 3026 3027 3029 3030 3031 3033 3034 3035 3036 3038 3039 3040 3041 3043 3044 3045 3046 3048 3049 3050 3051 3052 3053 3054 3055 3056 3057 3058 3059 3060 3061 3061 3062 3063 3064 3064 3065 3066 3066 3067 3068 3068 3069 3070 3071 3071 3072 3072 3073 3074 3075 3076 3076 3077 3078 3078 3079
2980 2982 2983 2985 2987 2989 2990 2991 2993 2995 2996 2997 2999 3000 3002 3003 3005 3006 3008 3009 3011 3012 3013 3014 3016 3017 3018 3020 3021 3023 3025 3026 3027 3029 3030 3031 3033 3034 3035 3037 3038 3039 3041 3042 3043 3044 3046 3047 3048 3049 3050 3051 3052 3053 3053 3054 3055 3056 3057 3057 3058 3059 3060 3061 3061 3062 3063 3063 3064 3065 3065 3066 3067 3068 3068 3069 3070 3070 3071 3072 3073 3074 3074 3075 3075 3076
2979 2980 2981 2983 2985 2986 2988 2990 2991 2992 2993 2995 2996 2998 3000 3001 3002 3004 3006 3007 3008 3010 3011 3012 3013 3015 3016 3018 3019 3021 3022 3024 3025 3026 3028 3029 3030 3032 3033 3034 3036 3037 3038 3039 3041 3042 3043 3044 3045 3046 3047 3048 3049 3050 3051 3052 3053 3053 3054 3055 3056 3056 3057 3058 3058 3059 3060 3061 3061 3062 3062 3063 3064 3065 3066 3066 3067 3067 3068 3069 3070 3071 3071 3072 3072 3073
2977 2978 2980 2981 2983 2984 2986 2987 2989 2990 2991 2992 2994 2996 2997 2999 3000 3002 3003 3005 3006 3007 3008 3010 3011 3013 3014 3016 3017 3018 3020 3021 3022 3024 3025 3027 3028 3029 3031 3032 3033 3034 3036 3037 3038 3040 3041 3042 3043 3044 3045 3046 3047 3048 3049 3050 3050 3051 3052 3052 3053 3054 3055 3055 3056 3056 3057 3058 3059 3059 3060 3061 3061 3062 3063 3064 3064 3065 3066 3066 3067 3068 3068 3069 3070 3070
2976 2976 2978 2979 2981 2982 2984 2985 2986 2988 2989 2990 2991 2993 2995 2996 2998 2999 3001 3002 3004 3005 3006 3008 3009 3011 3012 3013 3015 3016 3017 3019 3020 3021 3023 3024 3026 3027 3028 3030 3031 3032 3033 3035 3036 3037 3038 3040 3041 3042 3043 3044 3045 3046 3046 3047 3048 3049 3050 3050 3051 3051 3052 3053 3053 3054 3055 3055 3056 3056 3057 3058 3059 3060 3061 3061 3061 3062 3063 3063 3064 3065 3066 3066 3066 3067
2973 2975 2976 2977 2979 2981 2982 2984 2985 2986 2987 2988 2990 2991 2992 2994 2995 2996 2998 3000 3001 3003 3004 3006 3007 3008 3010 3011 3012 3014 3015 3016 3018 3019 3021 3022 3023 3025 3026 3027 3029 3030 3031 3032 3034 3035 3036 3037 3038 3040 3041 3041 3042 3043 3044 3045 3046 3047 3047 3048 3049 3050 3050 3051 3051 3052 3052 3053 3053 3054 3055 3056 3056 3057 3058 3058 3059 3060 3060 3061 3061 3062 3062 3063 3064 3064
2971 2972 2973 2975 2976 2978 2981 2982 2984 2984 2985 2986 2988 2989 2991 2992 2993 2994 2996 2998 2999 3001 3002 3003 3005 3006 3007 3009 3010 3011 3013 3014 3016 3017 3018 3020 3021 3023 3024 3025 3026 3028 3029 3030 3032 3033 3034 3035 3036 3037 3038 3039 3040 3041 3042 3043 3044 3044 3045 3046 3047 3047 3048 3048 3049 3049 3050 3051 3051 3052 3052 3053 3054 3055 3055 3056 3056 3057 3057 3058 3058 3059 3059 3060 3061 3061
2968 2969 2971 2972 2973 2976 2978 2980 2982 2983 2985 2986 2986 2987 2989 2990 2991 2993 2994 2996 2997 2998 3000 3001 3002 3004 3005 3006 3008 3009 3011 3012 3013 3015 3016 3017 3019 3021 3022 3023 3024 3026 3027 3028 3030 3031 3032 3033 3034 3035 3036 3037 3038 3039 3040 3041 3041 3042 3043 3044 3045 3045 3046 3046 3047 3047 3048 3048 3049 3049 3050 3051 3051 3052 3053 3053 3054 3054 3055 3055 3056 3056 3056 3057 3057 3058
2965 2966 2968 2970 2971 2973 2975 2977 2979 2981 2983 2984 2985 2986 2987 2988 2990 2991 2992 2994 2995 2996 2998 2999 3000 3001 3002 3004 3006 3007 3009 3010 3011 3013 3014 3015 3017 3018 3019 3021 3022 3023 3025 3026 3027 3029 3030 3031 3032 3033 3034 3035 3036 3037 3037 3038 3039 3040 3041 3041 3042 3043 3043 3044 3044 3045 3046 3046 3046 3047 3048 3048 3049 3050 3050 3051 3051 3051 3052 3052 3052 3053 3053 3054 3054 3055
2963 2964 2966 2967 2969 2971 2972 2974 2976 2977 2979 2981 2983 2985 2986 2987 2988 2990 2991 2992 2994 2995 2996 2996 2997 2999 3000 3002 3004 3006 3007 3009 3010 3011 3012 3014 3015 3016 3017 3019 3020 3021 3022 3024 3025 3026 3027 3028 3030 3031 3032 3033 3034 3035 3035 3036 3037 3038 3038 3039 3040 3041 3041 3041 3042 3043 3043 3044 3044 3045 3045 3046 3046 3047 3047 3048 3048 3049 3049 3049 3050 3050 3050 3051 3051 3052
2960 2962 2963 2965 2967 2969 2970 2972 2974 2975 2977 2978 2980 2982 2983 2985 2986 2988 2990 2992 2993 2994 2995 2995 2996 2996 2998 3000 3001 3003 3005 3007 3009 3010 3011 3012 3013 3014 3015 3017 3018 3019 3020 3021 3023 3024 3025 3026 3027 3028 3029 3030 3031 3032 3033 3034 3035 3035 3036 3037 3037 3038 3039 3039 3040 3040 3041 3041 3042 3042 3043 3044 3044 3044 3045 3045 3045 3046 3046 3046 3046 3047 3047 3048 3048 3049
2957 2959 2961 2962 2964 2966 2968 2970 2971 2973 2975 2976 2977 2979 2981 2983 2985 2986 2988 2990 2991 2993 2994 2994 2995 2995 2996 2998 2999 3001 3003 3005 3007 3008 3010 3011 3011 3012 3013 3015 3016 3017 3018 3019 3021 3021 3022 3024 3025 3026 3026 3028 3029 3030 3031 3031 3032 3033 3034 3034 3035 3035 3036 3036 3037 3038 3038 3039 3040 3040 3041 3041 3041 3042 3042 3042 3043 3043 3043 3043 3044 3044 3045 3045 3046 3046
2955 2956 2958 2959 2961 2963 2965 2967 2968 2970 2971 2973 2975 2976 2979 2981 2982 2984 2985 2987 2988 2990 2992 2993 2994 2995 2996 2998 2999 3000 3001 3002 3004 3006 3007 3008 3009 3010 3011 3013 3014 3015 3016 3017 3018 3019 3020 3021 3022 3023 3024 3025 3026 3027 3028 3029 3030 3031 3031 3032 3032 3033 3033 3034 3035 3035 3036 3036 3037 3037 3038 3038 3039 3039 3039 3040 3040 3040 3041 3041 3041 3041 3042 3042 3043 3043
2952 2954 2955 2956 2958 2960 2962 2963 2965 2967 2968 2970 2972 2974 2976 2978 2979 2981 2982 2984 2985 2987 2989 2991 2993 2995 2996 2996 2997 2998 3000 3001 3002 3004 3005 3006 3007 3007 3009 3011 3011 3012 3014 3015 3016 3016 3017 3019 3020 3021 3021 3023 3024 3025 3026 3026 3027 3028 3029 3029 3030 3031 3031 3032 3032 3033 3034 3034 3035 3035 3035 3036 3036 3036 3037 3037 3037 3037 3038 3038 3038 3039 3039 3039 3040 3040
2949 2951 2952 2953 2955 2957 2959 2960 2962 2964 2965 2967 2969 2971 2973 2975 2976 2978 2980 2981 2983 2984 2985 2987 2989 2992 2994 2995 2996 2997 2998 2999 3001 3002 3004 3005 3005 3006 3007 3008 3009 3010 3011 3013 3014 3015 3016 3017 3018 3018 3019 3021 3021 3022 3023 3024 3025 3026 3026 3027 3027 3028 3029 3029 3030 3031 3031 3031 3032 3032 3033 3033 3034 3034 3034 3034 3035 3035 3035 3036 3036 3036 3036 3037 3037 3037
2946 2947 2949 2951 2952 2954 2956 2957 2959 2960 2962 2964 2966 2968 2970 2972 2974 2976 2977 2979 2980 2981 2982 2984 2986 2989 2992 2993 2994 2995 2996 2997 2999 3000 3001 3002 3003 3003 3005 3006 3007 3008 3009 3011 3011 3012 3013 3015 3016 3016 3017 3018 3019 3020 3021 3021 3022 3023 3024 3024 3025 3026 3026 3027 3027 3028 3029 3029 3030 3030 3030 3031 3031 3031 3031 3032 3032 3032 3033 3033 3033 3033 3034 3034 3034 3035
2943 2944 2946 2948 2950 2951 2953 2955 2956 2957 2959 2961 2963 2965 2967 2969 2971 2973 2975 2976 2977 2979 2980 2982 2984 2986 2989 2991 2992 2993 2994 2996 2996 2997 2999 3000 3000 3001 3002 3004 3005 3006 3007 3009 3010 3010 3011 3012 3013 3014 3015 3016 3016 3017 3018 3019 3020 3020 3021 3022 3022 3023 3024 3024 3025 3026 3026 3026 3027 3027 3028 3028 3028 3029 3029 3029 3030 3030 3030 3030 3031 3031 3031 3031 3031 3032
2940 2942 2944 2945 2947 2949 2951 2952 2953 2955 2957 2959 2961 2963 2965 2966 2968 2970 2972 2973 2974 2976 2978 2980 2982 2984 2986 2988 2990 2991 2992 2993 2994 2995 2996 2997 2998 2999 3000 3002 3002 3003 3005 3006 3007 3008 3009 3010 3011 3011 3012 3013 3014 3015 3016 3016 3017 3018 3018 3019 3020 3021 3021 3022 3022 3023 3024 3024 3025 3025 3025 3026 3026 3026 3026 3027 3027 3027 3027 3028 3028 3028 3028 3029 3029 3029
2938 2939 2941 2942 2944 2946 2948 2949 2951 2952 2954 2956 2959 2961 2962 2964 2966 2968 2969 2971 2972 2974 2976 2978 2979 2981 2982 2984 2986 2988 2990 2991 2992 2993 2994 2996 2996 2997 2998 2999 3000 3001 3002 3004 3005 3006 3006 3007 3008 3009 3010 3011 3011 3012 3013 3014 3014 3015 3016 3016 3017 3018 3019 3020 3020 3021 3021 3022 3022 3022 3023 3023 3023 3024 3024 3024 3024 3025 3025 3025 3025 3025 3026 3026 3026 3026
2936 2937 2938 2940 2941 2943 2945 2946 2948 2950 2952 2954 2956 2958 2959 2961 2964 2965 2967 2969 2971 2972 2974 2975 2976 2977 2979 2981 2983 2984 2986 2989 2990 2990 2992 2994 2996 2997 2997 2998 2998 2999 2999 3001 3001 3003 3004 3005 3005 3006 3007 3008 3009 3010 3011 3011 3012 3013 3013 3014 3015 3016 3016 3017 3018 3018 3018 3019 3019 3020 3020 3021 3021 3021 3021 3021 3022 3022 3022 3022 3022 3022 3023 3023 3023 3024
2932 2934 2935 2937 2939 2940 2941 2944 2946 2948 2950 2951 2953 2955 2956 2959 2961 2962 2964 2966 2967 2969 2970 2971 2973 2975 2977 2979 2980 2981 2983 2985 2986 2987 2989 2991 2991 2992 2994 2996 2997 2996 2996 2996 2998 2999 3001 3001 3002 3003 3005 3006 3007 3008 3009 3009 3010 3010 3011 3011 3013 3014 3014 3015 3015 3016 3016 3016 3017 3017 3017 3018 3018 3018 3019 3019 3019 3019 3019 3019 3019 3020 3020 3020 3021 3021
2929 2931 2933 2934 2936 2937 2939 2941 2943 2944 2946 2948 2950 2952 2954 2956 2957 2959 2961 2962 2964 2966 2967 2969 2971 2972 2974 2975 2977 2979 2981 2982 2983 2985 2986 2987 2987 2988 2990 2992 2994 2994 2993 2993 2994 2996 2997 2998 3000 3001 3003 3004 3005 3006 3006 3007 3007 3008 3008 3010 3011 3011 3012 3012 3012 3013 3013 3014 3014 3015 3015 3015 3016 3016 3016 3016 3016 3016 3016 3016 3017 3017 3017 3017 3018 3018
2926 2928 2930 2931 2933 2935 2936 2938 2940 2941 2943 2945 2947 2949 2951 2953 2955 2956 2958 2960 2962 2963 2965 2966 2968 2969 2970 2972 2974 2976 2978 2979 2981 2982 2982 2984 2985 2986 2987 2989 2990 2991 2991 2991 2991 2993 2995 2996 2997 2999 3000 3001 3002 3003 3004 3005 3005 3006 3006 3007 3008 3009 3009 3010 3010 3010 3011 3011 3011 3012 3012 3012 3013 3013 3013 3014 3014 3014 3014 3014 3014 3014 3014 3015 3015 3015
2923 2925 2927 2929 2930 2932 2934 2935 2937 2939 2941 2942 2944 2946 2948 2950 2951 2953 2955 2957 2959 2961 2962 2964 2965 2966 2968 2970 2972 2973 2975 2976 2978 2979 2980 2981 2983 2985 2985 2986 2987 2988 2989 2989 2990 2991 2992 2993 2994 2996 2997 2998 2999 3000 3001 3002 3002 3003 3004 3005 3006 3006 3007 3007 3007 3008 3008 3008 3009 3009 3009 3010 3010 3010 3010 3011 3011 3011 3011 3011 3011 3011 3011 3012 3012 3012
2921 2922 2924 2926 2927 2929 2931 2932 2934 2936 2938 2940 2941 2943 2945 2946 2949 2951 2952 2954 2956 2958 2959 2961 2962 2964 2966 2968 2970 2971 2973 2974 2975 2976 2977 2979 2981 2982 2983 2984 2985 2987 2987 2987 2987 2987 2988 2989 2991 2993 2995 2996 2996 2998 2998 2999 3000 3001 3002 3003 3003 3004 3004 3004 3005 3005 3006 3006 3006 3006 3006 3007 3007 3007 3007 3008 3008 3008 3008 3008 3008 3008 3009 3009 3009 3010
2918 2920 2921 2923 2925 2927 2929 2931 2932 2934 2936 2937 2939 2941 2942 2944 2946 2948 2950 2951 2953 2955 2957 2958 2960 2961 2963 2965 2967 2969 2971 2972 2972 2974 2975 2977 2979 2980 2981 2982 2984 2985 2986 2985 2985 2985 2986 2987 2988 2990 2992 2993 2994 2995 2996 2996 2997 2998 2999 3000 3001 3001 3001 3002 3002 3003 3003 3003 3003 3003 3003 3004 3004 3004 3005 3005 3005 3005 3005 3005 3005 3006 3006 3006 3006 3007
2916 2917 2919 2921 2923 2925 2926 2929 2930 2932 2934 2936 2937 2939 2940 2942 2944 2946 2947 2949 2951 2952 2954 2956 2957 2959 2961 2962 2964 2966 2968 2969 2970 2971 2973 2975 2976 2977 2978 2980 2981 2982 2983 2982 2982 2982 2984 2985 2986 2988 2989 2990 2991 2992 2993 2994 2995 2996 2996 2997 2998 2998 2999 2999 3000 3000 3001 3001 3001 3001 3001 3001 3001 3001 3002 3002 3002 3002 3002 3002 3002 3003 3003 3003 3004 3004
2913 2915 2917 2919 2921 2922 2924 2926 2928 2930 2931 2933 2935 2936 2938 2940 2941 2943 2945 2947 2949 2950 2952 2954 2955 2957 2959 2961 2962 2964 2965 2966 2967 2969 2970 2972 2973 2974 2976 2977 2979 2979 2979 2980 2980 2981 2981 2983 2984 2986 2986 2987 2988 2989 2990 2991 2992 2993 2993 2994 2995 2996 2996 2996 2997 2997 2998 2998 2998 2998 2998 2998 2998 2999 2999 2999 2999 2999 2999 2999 3000 3000 3000 3001 3001 3001
2911 2913 2915 2916 2918 2920 2922 2924 2925 2927 2929 2931 2932 2934 2936 2937 2939 2941 2942 2944 2946 2948 2950 2952 2954 2955 2956 2959 2961 2962 2962 2964 2965 2966 2968 2969 2970 2971 2973 2974 2975 2975 2976 2977 2978 2978 2980 2981 2982 2983 2984 2985 2986 2986 2987 2988 2989 2990 2990 2991 2992 2992 2993 2994 2995 2995 2995 2995 2995 2995 2995 2996 2996 2996 2996 2996 2996 2996 2996 2996 2997 2997 2998 2998 2998 2999
2910 2911 2913 2915 2916 2918 2920 2921 2923 2925 2926 2928 2930 2931 2933 2934 2936 2937 2939 2941 2943 2945 2947 2949 2951 2952 2954 2955 2956 2958 2959 2961 2962 2964 2965 2966 2966 2968 2970 2971 2971 2972 2974 2975 2976 2977 2978 2979 2980 2981 2981 2982 2983 2984 2985 2986 2987 2987 2988 2988 2989 2990 2991 2991 2992 2992 2992 2992 2992 2992 2993 2993 2993 2993 2993 2993 2993 2993 2994 2994 2994 2995 2995 2996 2996 2996
2908 2909 2911 2913 2914 2916 2917 2919 2921 2922 2924 2926 2927 2929 2930 2931 2933 2935 2936 2938 2940 2941 2943 2945 2947 2948 2950 2951 2952 2954 2956 2957 2959 2961 2962 2963 2964 2965 2966 2968 2969 2970 2971 2972 2973 2974 2975 2976 2977 2978 2979 2979 2980 2981 2982 2983 2984 2984 2985 2986 2987 2987 2988 2988 2989 2989 2989 2990 2990 2990 2990 2990 2990 2990 2990 2990 2991 2991 2991 2991 2991 2992 2992 2993 2993 2993
2906 2907 2909 2911 2912 2914 2915 2917 2919 2920 2922 2923 2925 2926 2928 2929 2931 2932 2934 2935 2937 2938 2940 2942 2944 2945 2947 2948 2949 2951 2952 2953 2955 2956 2958 2960 2961 2962 2963 2965 2966 2967 2968 2969 2970 2971 2972 2973 2974 2975 2976 2976 2977 2978 2979 2980 2981 2981 2982 2983 2984 2985 2985 2985 2986 2986 2986 2986 2987 2987 2987 2987 2987 2987 2987 2987 2988 2988 2988 2989 2989 2989 2990 2990 2991 2991
2904 2906 2907 2908 2910 2911 2913 2915 2916 2918 2920 2921 2922 2924 2926 2927 2928 2930 2931 2933 2934 2936 2937 2939 2941 2942 2944 2945 2947 2948 2949 2950 2951 2952 2954 2956 2957 2958 2960 2961 2962 2964 2965 2966 2967 2968 2969 2969 2970 2971 2972 2973 2974 2975 2976 2977 2978 2979 2980 2981 2981 2982 2982 2982 2982 2983 2983 2984 2984 2984 2984 2984 2984 2984 2984 2984 2985 2985 2986 2986 2986 2987 2987 2987 2988 2988
2902 2903 2905 2906 2908 2909 2911 2912 2914 2916 2917 2919 2920 2921 2923 2925 2926 2927 2929 2930 2932 2933 2935 2936 2937 2939 2941 2942 2944 2945 2946 2946 2947 2949 2950 2952 2953 2955 2956 2958 2959 2960 2961 2962 2963 2965 2966 2966 2967 2968 2969 2970 2971 2971 2973 2974 2975 2976 2977 2977 2978 2978 2979 2979 2979 2980 2980 2981 2981 2981 2981 2981 2981 2981 2981 2982 2982 2983 2983 2984 2984 2984 2985 2985 2985 2985
2900 2901 2903 2904 2906 2907 2909 2910 2912 2913 2915 2916 2918 2919 2921 2922 2923 2925 2926 2928 2929 2931 2932 2933 2935 2936 2937 2939 2941 2942 2943 2944 2945 2946 2947 2948 2950 2951 2953 2954 2956 2957 2958 2959 2961 2961 2962 2963 2964 2965 2966 2966 2967 2968 2970 2971 2972 2973 2974 2974 2974 2975 2975 2976 2976 2977 2977 2977 2977 2977 2977 2977 2977 2978 2978 2979 2979 2980 2981 2981 2981 2982 2982 2982 2982 2982
2897 2899 2900 2901 2903 2905 2906 2908 2909 2911 2912 2914 2915 2917 2918 2919 2921 2922 2924 2925 2926 2928 2930 2931 2932 2934 2935 2936 2938 2939 2940 2941 2942 2943 2945 2946 2947 2949 2950 2951 2953 2954 2955 2956 2957 2959 2960 2961 2962 2962 2963 2964 2965 2966 2966 2968 2969 2969 2970 2971 2971 2972 2972 2972 2973 2973 2974 2974 2974 2973 2973 2974 2974 2975 2975 2976 2977 2977 2978 2978 2979 2979 2980 2980 2980 2980
2895 2896 2897 2899 2901 2902 2903 2905 2906 2908 2910 2911 2912 2914 2915 2916 2918 2919 2921 2922 2924 2925 2927 2928 2930 2931 2932 2934 2935 2936 2937 2938 2939 2941 2942 2943 2945 2946 2947 2949 2950 2951 2952 2954 2955 2956 2957 2958 2959 2960 2961 2961 2962 2963 2964 2965 2966 2966 2967 2968 2968 2969 2969 2969 2970 2970 2970 2970 2970 2970 2970 2971 2971 2972 2972 2973 2974 2975 2975 2976 2976 2976 2976 2977 2977 2977
2892 2893 2895 2896 2897 2899 2901 2902 2904 2905 2906 2908 2909 2911 2912 2914 2915 2916 2918 2919 2921 2922 2924 2925 2926 2928 2929 2931 2932 2933 2934 2936 2936 2938 2939 2941 2942 2943 2945 2946 2947 2948 2949 2951 2952 2953 2954 2955 2956 2957 2958 2959 2960 2960 2961 2961 2962 2963 2964 2965 2965 2965 2966 2966 2966 2966 2966 2966 2966 2966 2967 2967 2968 2969 2970 2971 2971 2972 2973 2973 2973 2974 2974 2974 2974 2974
2890 2891 2892 2894 2895 2896 2898 2899 2901 2902 2903 2905 2906 2908 2909 2911 2912 2914 2915 2916 2917 2919 2920 2922 2923 2925 2926 2927 2929 2930 2931 2933 2934 2935 2936 2937 2939 2940 2941 2942 2944 2945 2946 2947 2948 2950 2951 2952 2953 2954 2955 2956 2956 2957 2958 2959 2959 2960 2961 2961 2961 2962 2962 2962 2963 2963 2963 2963 2963 2963 2964 2965 2966 2966 2967 2968 2968 2969 2970 2970 2971 2971 2971 2971 2971 2971
2888 2889 2890 2891 2892 2894 2895 2896 2898 2899 2901 2902 2903 2905 2906 2907 2909 2910 2911 2913 2914 2915 2917 2918 2920 2921 2922 2924 2926 2927 2928 2930 2931 2932 2933 2934 2936 2936 2938 2939 2940 2941 2943 2944 2945 2946 2947 2948 2950 2951 2951 2953 2954 2954 2955 2955 2956 2957 2957 2958 2958 2958 2959 2959 2959 2959 2960 2960 2960 2961 2961 2962 2963 2964 2964 2965 2966 2966 2967 2967 2967 2968 2968 2968 2969 2969
2886 2887 2888 2889 2891 2892 2893 2894 2896 2897 2898 2900 2901 2902 2903 2905 2906 2907 2908 2910 2911 2912 2913 2915 2916 2917 2919 2920 2922 2923 2925 2926 2927 2928 2930 2931 2932 2933 2935 2936 2937 2938 2939 2940 2941 2942 2944 2945 2946 2947 2948 2949 2950 2951 2952 2952 2953 2953 2954 2954 2955 2955 2956 2956 2956 2956 2956 2956 2957 2958 2959 2960 2960 2961 2961 2962 2963 2963 2964 2964 2965 2965 2965 2966 2966 2966
2885 2886 2886 2888 2889 2890 2891 2893 2894 2895 2896 2897 2898 2900 2901 2902 2903 2905 2906 2907 2908 2909 2910 2911 2913 2914 2916 2917 2918 2920 2921 2922 2924 2925 2926 2927 2929 2930 2931 2932 2933 2935 2936 2937 2938 2939 2940 2941 2943 2944 2945 2946 2947 2947 2948 2949 2949 2949 2950 2951 2951 2952 2952 2953 2953 2953 2953 2954 2955 2955 2956 2957 2957 2958 2958 2959 2960 2960 2961 2961 2961 2962 2963 2963 2963 2964
2883 2884 2885 2886 2888 2889 2890 2891 2892 2893 2894 2896 2896 2898 2899 2900 2901 2902 2903 2905 2906 2907 2908 2909 2910 2911 2913 2914 2915 2916 2917 2919 2920 2921 2923 2924 2925 2926 2928 2929 2930 2931 2932 2934 2935 2936 2937 2938 2939 2941 2941 2942 2943 2944 2945 2945 2946 2946 2946 2947 2948 2949 2950 2950 2950 2951 2951 2951 2952 2952 2953 2954 2954 2955 2955 2956 2957 2957 2958 2958 2959 2960 2960 2961 2961 2962
2882 2883 2884 2885 2886 2887 2888 2889 2890 2891 2892 2894 2895 2896 2897 2898 2899 2900 2901 2902 2903 2904 2906 2907 2908 2909 2910 2911 2912 2913 2915 2916 2917 2918 2919 2921 2922 2923 2924 2926 2927 2928 2929 2930 2931 2933 2934 2935 2936 2937 2938 2939 2940 2941 2941 2942 2942 2943 2943 2944 2945 2946 2946 2947 2947 2948 2948 2949 2950 2950 2950 2951 2951 2952 2952 2953 2954 2955 2955 2956 2956 2957 2958 2958 2959 2959
2881 2882 2883 2884 2885 2886 2887 2888 2889 2890 2891 2892 2893 2894 2895 2896 2897 2898 2899 2900 2901 2902 2903 2905 2906 2907 2908 2909 2910 2911 2912 2913 2914 2915 2916 2918 2919 2920 2921 2922 2924 2925 2926 2927 2928 2930 2931 2932 2933 2934 2935 2936 2936 2937 2938 2938 2939 2940 2941 2941 2942 2943 2944 2944 2945 2945 2946 2946 2947 2947 2947 2948 2948 2949 2949 2950 2951 2952 2953 2953 2954 2955 2955 2956 2956 2957
2880 2881 2881 2882 2883 2884 2885 2886 2887 2888 2889 2890 2891 2892 2893 2894 2895 2896 2897 2898 2899 2900 2901 2902 2904 2905 2906 2907 2908 2909 2910 2911 2911 2912 2914 2915 2916 2917 2918 2919 2921 2922 2923 2924 2926 2926 2927 2929 2930 2931 2931 2932 2933 2934 2934 2935 2936 2937 2938 2939 2940 2940 2941 2941 2942 2942 2943 2944 2944 2944 2945 2945 2945 2946 2946 2947 2948 2949 2950 2951 2952 2952 2953 2953 2954 2954
2878 2879 2880 2881 2882 2883 2884 2884 2885 2886 2887 2888 2889 2890 2891 2892 2893 2894 2895 2896 2897 2898 2899 2900 2901 2903 2904 2905 2906 2907 2908 2909 2909 2910 2911 2912 2913 2915 2916 2917 2918 2919 2920 2921 2922 2924 2925 2925 2926 2927 2928 2929 2930 2931 2931 2932 2933 2934 2935 2936 2936 2937 2938 2939 2939 2940 2940 2941 2941 2941 2942 2942 2942 2943 2944 2945 2946 2947 2948 2949 2949 2950 2950 2951 2951 2952
2877 2877 2878 2879 2880 2881 2882 2883 2884 2885 2886 2886 2888 2889 2890 2891 2891 2892 2893 2894 2895 2896 2897 2898 2899 2901 2902 2903 2904 2905 2906 2906 2907 2908 2909 2910 2911 2912 2913 2914 2915 2916 2917 2919 2920 2921 2922 2922 2923 2924 2925 2926 2927 2928 2928 2929 2930 2931 2932 2933 2934 2934 2935 2936 2937 2937 2938 2938 2938 2939 2939 2939 2940 2941 2941 2942 2944 2945 2946 2947 2947 2948 2948 2948 2948 2949
2875 2876 2877 2878 2879 2880 2881 2881 2882 2883 2884 2885 2886 2887 2888 2889 2890 2891 2891 2892 2893 2894 2895 2896 2897 2898 2900 2901 2901 2902 2903 2904 2905 2906 2907 2908 2909 2910 2911 2911 2913 2914 2915 2916 2917 2918 2919 2919 2920 2921 2922 2923 2924 2925 2926 2926 2927 2928 2929 2930 2931 2932 2933 2934 2934 2935 2935 2935 2936 2936 2936 2937 2938 2939 2939 2940 2941 2943 2944 2945 2945 2946 2946 2946 2946 2947